�������l�o���
Date,Time,MP-1(��Sv/h),MP-2(��Sv/h),MP-3(��Sv/h),MP-4(��Sv/h),MP-5(��Sv/h),MP-6(��Sv/h),MP-7(��Sv/h),MP-8(��Sv/h),����,����(m/s),���J
2021/03/06,00:00,0.646,0.941,0.597,1.171,0.838,0.374,0.661,0.621,�쐼,6.0,��
2021/03/06,00:10,0.645,0.940,0.599,1.172,0.836,0.375,0.660,0.619,�쐼,6.2,��
2021/03/06,00:20,0.647,0.941,0.597,1.172,0.835,0.375,0.661,0.621,�쐼,7.1,��
2021/03/06,00:30,0.645,0.940,0.598,1.170,0.836,0.376,0.662,0.621,�쐼,7.0,��
2021/03/06,00:40,0.644,0.941,0.597,1.170,0.836,0.374,0.660,0.620,��쐼,6.8,��
2021/03/06,00:50,0.646,0.940,0.598,1.172,0.836,0.374,0.662,0.621,��쐼,5.8,��
2021/03/06,01:00,0.649,0.939,0.597,1.171,0.836,0.376,0.661,0.621,��쐼,6.0,��
2021/03/06,01:10,0.646,0.941,0.598,1.170,0.835,0.374,0.662,0.621,��쐼,5.9,��
2021/03/06,01:20,0.646,0.941,0.598,1.170,0.838,0.375,0.663,0.620,�쐼,6.4,��
2021/03/06,01:30,0.646,0.940,0.598,1.172,0.838,0.375,0.661,0.621,��쐼,6.0,��
2021/03/06,01:40,0.646,0.939,0.598,1.172,0.836,0.375,0.662,0.620,��,4.0,��
2021/03/06,01:50,0.646,0.939,0.597,1.172,0.836,0.375,0.662,0.619,��쐼,2.2,��
2021/03/06,02:00,0.646,0.942,0.597,1.171,0.836,0.376,0.661,0.620,��쐼,4.1,��
2021/03/06,02:10,0.646,0.941,0.598,1.170,0.835,0.376,0.662,0.621,��,5.7,��
2021/03/06,02:20,0.649,0.940,0.598,1.171,0.836,0.376,0.661,0.621,��,3.3,��
2021/03/06,02:30,0.644,0.940,0.597,1.171,0.838,0.375,0.663,0.621,��쓌,1.7,��
2021/03/06,02:40,0.644,0.940,0.598,1.170,0.835,0.374,0.662,0.621,���쓌,1.5,��
2021/03/06,02:50,0.646,0.940,0.598,1.173,0.835,0.374,0.661,0.619,�쓌,2.0,��
2021/03/06,03:00,0.644,0.941,0.599,1.173,0.839,0.374,0.661,0.620,��,2.0,��
2021/03/06,03:10,0.646,0.942,0.596,1.171,0.834,0.376,0.663,0.621,��,1.7,��
2021/03/06,03:20,0.644,0.941,0.599,1.170,0.837,0.374,0.662,0.619,��쐼,1.9,��
2021/03/06,03:30,0.645,0.941,0.596,1.173,0.835,0.374,0.663,0.620,��쐼,2.3,��
2021/03/06,03:40,0.646,0.938,0.598,1.171,0.836,0.374,0.662,0.620,��,2.3,��
2021/03/06,03:50,0.645,0.939,0.596,1.171,0.835,0.375,0.662,0.619,��쓌,2.9,��
2021/03/06,04:00,0.647,0.939,0.595,1.172,0.836,0.376,0.663,0.621,��쓌,3.3,��
2021/03/06,04:10,0.645,0.940,0.596,1.170,0.835,0.375,0.662,0.620,��,2.6,��
2021/03/06,04:20,0.645,0.940,0.598,1.172,0.835,0.375,0.663,0.619,��쓌,3.3,��
2021/03/06,04:30,0.646,0.941,0.598,1.169,0.835,0.374,0.661,0.621,��쓌,3.9,��
2021/03/06,04:40,0.646,0.943,0.597,1.171,0.835,0.374,0.662,0.620,��,2.3,��
2021/03/06,04:50,0.646,0.938,0.596,1.171,0.836,0.376,0.662,0.620,��,2.3,��
2021/03/06,05:00,0.643,0.941,0.595,1.170,0.835,0.374,0.663,0.620,��,2.5,��
2021/03/06,05:10,0.646,0.938,0.596,1.171,0.834,0.375,0.664,0.621,��쐼,1.7,��
2021/03/06,05:20,0.645,0.941,0.597,1.172,0.836,0.376,0.662,0.620,���쐼,1.7,��
2021/03/06,05:30,0.645,0.939,0.596,1.173,0.835,0.376,0.663,0.620,��쐼,1.9,��
2021/03/06,05:40,0.646,0.941,0.595,1.170,0.836,0.377,0.661,0.620,�쐼,3.7,��
2021/03/06,05:50,0.645,0.940,0.598,1.171,0.837,0.374,0.663,0.620,���쐼,5.4,��
2021/03/06,06:00,0.644,0.941,0.598,1.173,0.835,0.375,0.662,0.620,���쐼,4.9,��
2021/03/06,06:10,0.644,0.939,0.596,1.172,0.834,0.375,0.661,0.620,�쐼,4.5,��
2021/03/06,06:20,0.644,0.942,0.598,1.172,0.836,0.375,0.663,0.620,�쐼,3.8,��
2021/03/06,06:30,0.646,0.939,0.597,1.172,0.837,0.375,0.664,0.619,��쐼,2.8,��
2021/03/06,06:40,0.646,0.937,0.597,1.172,0.835,0.375,0.663,0.620,�쐼,3.4,��
2021/03/06,06:50,0.644,0.940,0.598,1.173,0.837,0.375,0.664,0.620,���쐼,3.9,��
2021/03/06,07:00,0.645,0.939,0.599,1.172,0.834,0.375,0.662,0.621,���쐼,4.2,��
2021/03/06,07:10,0.645,0.940,0.597,1.172,0.835,0.375,0.663,0.622,���쐼,3.1,��
2021/03/06,07:20,0.645,0.940,0.598,1.171,0.835,0.376,0.664,0.621,��,1.7,��
2021/03/06,07:30,0.645,0.941,0.598,1.170,0.837,0.375,0.663,0.621,��쐼,1.4,��
2021/03/06,07:40,0.645,0.940,0.598,1.172,0.836,0.375,0.663,0.619,��,1.9,��
2021/03/06,07:50,0.645,0.940,0.598,1.174,0.836,0.376,0.663,0.621,��,3.7,��
2021/03/06,08:00,0.647,0.940,0.598,1.172,0.837,0.374,0.663,0.621,��,6.3,��
2021/03/06,08:10,0.647,0.941,0.599,1.170,0.837,0.377,0.662,0.620,��,7.8,��
2021/03/06,08:20,0.647,0.940,0.598,1.172,0.837,0.375,0.662,0.621,��,5.9,��
2021/03/06,08:30,0.646,0.941,0.597,1.173,0.837,0.376,0.662,0.621,��,5.5,��
2021/03/06,08:40,0.646,0.937,0.598,1.175,0.836,0.374,0.660,0.621,���k��,7.0,��
2021/03/06,08:50,0.647,0.939,0.599,1.174,0.836,0.374,0.663,0.621,��,6.9,��
2021/03/06,09:00,0.646,0.939,0.599,1.173,0.835,0.374,0.662,0.619,���k��,5.7,��
2021/03/06,09:10,0.644,0.939,0.599,1.176,0.834,0.376,0.662,0.619,���k��,7.2,��
2021/03/06,09:20,0.645,0.938,0.598,1.172,0.835,0.373,0.661,0.619,��,7.2,��
2021/03/06,09:30,0.644,0.937,0.598,1.174,0.835,0.373,0.663,0.619,��,9.0,��
2021/03/06,09:40,0.645,0.938,0.598,1.174,0.835,0.374,0.663,0.618,��,8.7,��
2021/03/06,09:50,0.645,0.939,0.600,1.174,0.834,0.374,0.662,0.619,��,7.2,��
2021/03/06,10:00,0.644,0.935,0.599,1.176,0.836,0.373,0.663,0.618,��,7.9,��
2021/03/06,10:10,0.648,0.937,0.599,1.175,0.837,0.374,0.663,0.619,��,6.1,��
2021/03/06,10:20,0.645,0.938,0.600,1.174,0.838,0.373,0.663,0.618,��,6.9,��
2021/03/06,10:30,0.647,0.938,0.599,1.177,0.838,0.375,0.662,0.618,��,5.6,��
2021/03/06,10:40,0.648,0.938,0.601,1.175,0.837,0.376,0.663,0.619,��,6.0,��
2021/03/06,10:50,0.648,0.938,0.598,1.175,0.838,0.375,0.665,0.617,���쐼,4.7,��
2021/03/06,11:00,0.648,0.943,0.600,1.177,0.837,0.375,0.664,0.619,��,6.3,��
2021/03/06,11:10,0.647,0.942,0.600,1.175,0.839,0.375,0.663,0.618,���쐼,6.5,��
2021/03/06,11:20,0.647,0.941,0.598,1.177,0.837,0.376,0.662,0.618,��,5.2,��
2021/03/06,11:30,0.646,0.941,0.599,1.176,0.837,0.374,0.665,0.620,��,4.8,��
2021/03/06,11:40,0.647,0.943,0.599,1.177,0.837,0.376,0.665,0.620,��,6.6,��
2021/03/06,11:50,0.648,0.940,0.600,1.178,0.838,0.376,0.662,0.618,��,5.8,��
2021/03/06,12:00,0.645,0.943,0.598,1.176,0.839,0.374,0.663,0.619,�k�k��,5.2,��
2021/03/06,12:10,0.648,0.942,0.598,1.179,0.836,0.375,0.663,0.621,�k��,5.2,��
2021/03/06,12:20,0.645,0.941,0.597,1.179,0.838,0.376,0.664,0.619,�k��,6.4,��
2021/03/06,12:30,0.647,0.943,0.597,1.179,0.836,0.377,0.664,0.619,�k��,5.9,��
2021/03/06,12:40,0.647,0.941,0.598,1.179,0.837,0.374,0.664,0.620,�k��,7.8,��
2021/03/06,12:50,0.647,0.941,0.598,1.175,0.838,0.375,0.665,0.618,�k��,6.5,��
2021/03/06,13:00,0.646,0.940,0.597,1.176,0.839,0.375,0.664,0.619,�k��,6.7,��
2021/03/06,13:10,0.645,0.940,0.597,1.177,0.837,0.375,0.663,0.621,�k��,4.8,��
2021/03/06,13:20,0.646,0.943,0.598,1.179,0.838,0.374,0.663,0.620,���k��,5.0,��
2021/03/06,13:30,0.645,0.943,0.597,1.178,0.837,0.374,0.663,0.620,�k��,4.9,��
2021/03/06,13:40,0.646,0.939,0.597,1.178,0.837,0.374,0.665,0.619,�k��,3.7,��
2021/03/06,13:50,0.646,0.942,0.599,1.178,0.837,0.376,0.663,0.619,�k�k��,6.7,��
2021/03/06,14:00,0.647,0.942,0.599,1.178,0.836,0.373,0.664,0.619,�k��,5.6,��
2021/03/06,14:10,0.647,0.943,0.597,1.180,0.839,0.375,0.664,0.618,�k��,6.7,��
2021/03/06,14:20,0.647,0.942,0.598,1.178,0.837,0.375,0.663,0.619,�k��,8.3,��
2021/03/06,14:30,0.646,0.943,0.598,1.179,0.839,0.374,0.663,0.617,�k��,8.6,��
2021/03/06,14:40,0.645,0.942,0.599,1.179,0.839,0.376,0.663,0.619,�k��,9.4,��
2021/03/06,14:50,0.646,0.944,0.598,1.178,0.838,0.375,0.662,0.618,�k��,8.7,��
2021/03/06,15:00,0.647,0.944,0.598,1.180,0.838,0.375,0.664,0.619,�k��,5.8,��
2021/03/06,15:10,0.648,0.946,0.599,1.177,0.838,0.375,0.662,0.619,�k��,7.6,��
2021/03/06,15:20,0.648,0.947,0.600,1.179,0.840,0.376,0.664,0.619,�k��,6.7,��
2021/03/06,15:30,0.647,0.949,0.600,1.179,0.838,0.376,0.662,0.620,�k��,7.5,��
2021/03/06,15:40,0.647,0.946,0.598,1.179,0.837,0.376,0.662,0.619,�k��,6.1,��
2021/03/06,15:50,0.646,0.945,0.597,1.178,0.837,0.376,0.662,0.620,�k��,6.9,��
2021/03/06,16:00,0.644,0.945,0.599,1.180,0.841,0.375,0.662,0.618,�k��,6.2,��
2021/03/06,16:10,0.646,0.945,0.597,1.180,0.839,0.376,0.663,0.620,�k��,7.5,��
2021/03/06,16:20,0.645,0.947,0.600,1.181,0.839,0.375,0.661,0.618,�k��,7.7,��
2021/03/06,16:30,0.645,0.946,0.600,1.179,0.837,0.376,0.662,0.617,�k��,8.6,��
2021/03/06,16:40,0.644,0.946,0.597,1.178,0.838,0.375,0.662,0.620,�k��,9.2,��
2021/03/06,16:50,0.644,0.946,0.598,1.179,0.838,0.377,0.663,0.619,�k��,7.6,��
2021/03/06,17:00,0.646,0.946,0.599,1.180,0.838,0.375,0.661,0.620,�k��,8.5,��
2021/03/06,17:10,0.646,0.947,0.599,1.182,0.839,0.373,0.661,0.619,�k��,7.9,��
2021/03/06,17:20,0.646,0.947,0.599,1.179,0.840,0.374,0.663,0.620,�k��,8.7,��
2021/03/06,17:30,0.647,0.948,0.598,1.178,0.842,0.375,0.662,0.622,�k��,9.1,��
2021/03/06,17:40,0.647,0.948,0.601,1.180,0.842,0.374,0.661,0.622,�k��,8.2,��
2021/03/06,17:50,0.647,0.947,0.599,1.179,0.842,0.377,0.662,0.621,���k��,6.9,��
2021/03/06,18:00,0.648,0.948,0.597,1.179,0.843,0.375,0.661,0.623,���k��,6.2,��
2021/03/06,18:10,0.646,0.946,0.599,1.179,0.840,0.375,0.660,0.621,���k��,7.4,��
2021/03/06,18:20,0.645,0.948,0.597,1.180,0.840,0.374,0.662,0.621,���k��,7.7,��
2021/03/06,18:30,0.647,0.948,0.598,1.181,0.839,0.375,0.662,0.621,���k��,7.5,��
2021/03/06,18:40,0.647,0.949,0.598,1.180,0.840,0.374,0.662,0.620,���k��,5.6,��
2021/03/06,18:50,0.646,0.947,0.598,1.182,0.841,0.375,0.661,0.619,���k��,4.9,��
2021/03/06,19:00,0.645,0.947,0.599,1.180,0.841,0.374,0.662,0.620,�k��,5.3,��
2021/03/06,19:10,0.644,0.947,0.598,1.179,0.841,0.374,0.664,0.620,�k��,4.8,��
2021/03/06,19:20,0.645,0.946,0.597,1.177,0.840,0.375,0.663,0.621,�k�k��,4.2,��
2021/03/06,19:30,0.644,0.946,0.597,1.179,0.840,0.376,0.662,0.621,�k�k��,6.0,��
2021/03/06,19:40,0.645,0.949,0.596,1.178,0.840,0.374,0.662,0.618,�k�k��,4.3,��
2021/03/06,19:50,0.647,0.948,0.600,1.180,0.840,0.375,0.662,0.620,�k�k��,7.2,��
2021/03/06,20:00,0.646,0.948,0.598,1.179,0.841,0.373,0.663,0.621,�k�k��,7.9,��
2021/03/06,20:10,0.645,0.948,0.599,1.179,0.839,0.373,0.663,0.620,�k�k��,7.7,��
2021/03/06,20:20,0.645,0.946,0.598,1.178,0.841,0.374,0.662,0.620,�k�k��,7.6,��
2021/03/06,20:30,0.645,0.947,0.596,1.178,0.841,0.372,0.662,0.621,�k��,9.0,��
2021/03/06,20:40,0.647,0.948,0.597,1.182,0.840,0.373,0.661,0.619,�k�k��,7.2,��
2021/03/06,20:50,0.644,0.946,0.597,1.181,0.838,0.374,0.663,0.620,�k,8.3,��
2021/03/06,21:00,0.645,0.946,0.598,1.181,0.840,0.373,0.663,0.620,�k�k��,10.2,��
2021/03/06,21:10,0.645,0.949,0.598,1.180,0.840,0.373,0.663,0.620,�k,7.7,��
2021/03/06,21:20,0.645,0.947,0.598,1.179,0.840,0.373,0.662,0.620,�k,8.4,��
2021/03/06,21:30,0.643,0.946,0.597,1.182,0.837,0.372,0.662,0.621,�k�k��,9.9,��
2021/03/06,21:40,0.643,0.949,0.596,1.179,0.841,0.372,0.664,0.620,�k�k��,9.5,��
2021/03/06,21:50,0.644,0.947,0.597,1.180,0.839,0.373,0.663,0.620,�k�k��,9.8,��
2021/03/06,22:00,0.643,0.946,0.596,1.177,0.838,0.373,0.661,0.620,�k�k��,9.4,��
2021/03/06,22:10,0.644,0.946,0.597,1.179,0.840,0.372,0.662,0.619,�k�k��,7.8,��
2021/03/06,22:20,0.643,0.949,0.597,1.180,0.839,0.370,0.661,0.620,�k�k��,10.5,��
2021/03/06,22:30,0.645,0.947,0.598,1.177,0.841,0.371,0.662,0.620,�k�k��,11.9,��
2021/03/06,22:40,0.643,0.947,0.596,1.181,0.840,0.371,0.661,0.620,�k�k��,9.2,��
2021/03/06,22:50,0.644,0.946,0.595,1.181,0.841,0.370,0.663,0.619,�k�k��,7.9,��
2021/03/06,23:00,0.643,0.946,0.597,1.178,0.839,0.371,0.663,0.620,�k�k��,9.3,��
2021/03/06,23:10,0.642,0.946,0.595,1.178,0.839,0.370,0.661,0.618,�k�k��,8.9,��
2021/03/06,23:20,0.642,0.945,0.594,1.179,0.839,0.370,0.661,0.620,�k�k��,8.1,��
2021/03/06,23:30,0.643,0.947,0.595,1.179,0.840,0.370,0.662,0.619,�k�k��,7.2,��
2021/03/06,23:40,0.644,0.946,0.595,1.178,0.839,0.372,0.661,0.618,�k�k��,6.6,��
2021/03/06,23:50,0.643,0.947,0.594,1.179,0.839,0.371,0.663,0.619,�k�k��,7.3,��
